����������;��������(kVARh)
2018-10-01 00:00;3,65
2018-10-01 00:15;3,55
2018-10-01 00:30;3,7
2018-10-01 00:45;0,85
2018-10-01 01:00;0,4
2018-10-01 01:15;1,1
2018-10-01 01:30;1,65
2018-10-01 01:45;1
2018-10-01 02:00;2,3
2018-10-01 02:15;2,1
2018-10-01 02:30;2,9
2018-10-01 02:45;3
2018-10-01 03:00;3,9
2018-10-01 03:15;3,9
2018-10-01 03:30;3,75
2018-10-01 03:45;5,5
2018-10-01 04:00;5,85
2018-10-01 04:15;4,8
2018-10-01 04:30;4
2018-10-01 04:45;4,4
2018-10-01 05:00;6,1
2018-10-01 05:15;5,25
2018-10-01 05:30;5,25
2018-10-01 05:45;3,85
2018-10-01 06:00;2,35
2018-10-01 06:15;0,4
2018-10-01 06:30;1,7
2018-10-01 06:45;1,9
2018-10-01 07:00;1,25
2018-10-01 07:15;0,7
2018-10-01 07:30;1
2018-10-01 07:45;7,35
2018-10-01 08:00;9,65
2018-10-01 08:15;9,85
2018-10-01 08:30;16,1
2018-10-01 08:45;6,5
2018-10-01 09:00;12,8
2018-10-01 09:15;15,15
2018-10-01 09:30;16,65
2018-10-01 09:45;17,7
2018-10-01 10:00;20,15
2018-10-01 10:15;23,3
2018-10-01 10:30;27,35
2018-10-01 10:45;26,75
2018-10-01 11:00;32,6
2018-10-01 11:15;33,8
2018-10-01 11:30;32,9
2018-10-01 11:45;32,2
2018-10-01 12:00;33,25
2018-10-01 12:15;35,6
2018-10-01 12:30;35,35
2018-10-01 12:45;35,7
2018-10-01 13:00;29,95
2018-10-01 13:15;14,6
2018-10-01 13:30;35,8
2018-10-01 13:45;29,35
2018-10-01 14:00;30,85
2018-10-01 14:15;31,05
2018-10-01 14:30;29,15
2018-10-01 14:45;27
2018-10-01 15:00;27
2018-10-01 15:15;26,6
2018-10-01 15:30;26,4
2018-10-01 15:45;24,45
2018-10-01 16:00;22,4
2018-10-01 16:15;21,55
2018-10-01 16:30;17,8
2018-10-01 16:45;18,3
2018-10-01 17:00;14,85
2018-10-01 17:15;12,2
2018-10-01 17:30;13,55
2018-10-01 17:45;11,7
2018-10-01 18:00;11,05
2018-10-01 18:15;6,55
2018-10-01 18:30;6,3
2018-10-01 18:45;9,2
2018-10-01 19:00;8,95
2018-10-01 19:15;8,75
2018-10-01 19:30;6,2
2018-10-01 19:45;5,15
2018-10-01 20:00;5,35
2018-10-01 20:15;4,85
2018-10-01 20:30;3,05
2018-10-01 20:45;2,7
2018-10-01 21:00;3,2
2018-10-01 21:15;3,25
2018-10-01 21:30;4,55
2018-10-01 21:45;1,4
2018-10-01 22:00;0,85
2018-10-01 22:15;1,35
2018-10-01 22:30;0,85
2018-10-01 22:45;0,15
2018-10-01 23:00;1,85
2018-10-01 23:15;5,05
2018-10-01 23:30;5,8
2018-10-01 23:45;3
2018-10-02 00:00;0
2018-10-02 00:15;0,35
2018-10-02 00:30;0
2018-10-02 00:45;0
2018-10-02 01:00;0
2018-10-02 01:15;0
2018-10-02 01:30;0
2018-10-02 01:45;0
2018-10-02 02:00;0
2018-10-02 02:15;0
2018-10-02 02:30;0
2018-10-02 02:45;0,05
2018-10-02 03:00;0
2018-10-02 03:15;0
2018-10-02 03:30;0
2018-10-02 03:45;0
2018-10-02 04:00;0
2018-10-02 04:15;0
2018-10-02 04:30;0
2018-10-02 04:45;0
2018-10-02 05:00;0
2018-10-02 05:15;0
2018-10-02 05:30;0,05
2018-10-02 05:45;0
2018-10-02 06:00;0
2018-10-02 06:15;0
2018-10-02 06:30;0
2018-10-02 06:45;0
2018-10-02 07:00;0
2018-10-02 07:15;0
2018-10-02 07:30;0,05
2018-10-02 07:45;0,1
2018-10-02 08:00;0
2018-10-02 08:15;0,1
2018-10-02 08:30;1,1
2018-10-02 08:45;7,2
2018-10-02 09:00;11,15
2018-10-02 09:15;13,35
2018-10-02 09:30;15,1
2018-10-02 09:45;16,65
2018-10-02 10:00;19,45
2018-10-02 10:15;20,35
2018-10-02 10:30;25,65
2018-10-02 10:45;33,75
2018-10-02 11:00;32,2
2018-10-02 11:15;33,5
2018-10-02 11:30;33,75
2018-10-02 11:45;31
2018-10-02 12:00;32,1
2018-10-02 12:15;30,8
2018-10-02 12:30;34,05
2018-10-02 12:45;33,85
2018-10-02 13:00;34,8
2018-10-02 13:15;36,05
2018-10-02 13:30;34,85
2018-10-02 13:45;36,75
2018-10-02 14:00;35,3
2018-10-02 14:15;36
2018-10-02 14:30;33,35
2018-10-02 14:45;32,85
2018-10-02 15:00;32
2018-10-02 15:15;30,55
2018-10-02 15:30;33,4
2018-10-02 15:45;33,05
2018-10-02 16:00;34,05
2018-10-02 16:15;30,7
2018-10-02 16:30;29,6
2018-10-02 16:45;25,35
2018-10-02 17:00;25,45
2018-10-02 17:15;21,2
2018-10-02 17:30;19,6
2018-10-02 17:45;18,6
2018-10-02 18:00;16,5
2018-10-02 18:15;15,4
2018-10-02 18:30;14,8
2018-10-02 18:45;13,4
2018-10-02 19:00;13,45
2018-10-02 19:15;14
2018-10-02 19:30;11,55
2018-10-02 19:45;13,7
2018-10-02 20:00;13,3
2018-10-02 20:15;10,5
2018-10-02 20:30;9,2
2018-10-02 20:45;10,5
2018-10-02 21:00;9,4
2018-10-02 21:15;11,8
2018-10-02 21:30;13
2018-10-02 21:45;12,15
2018-10-02 22:00;11
2018-10-02 22:15;7,55
2018-10-02 22:30;7,5
2018-10-02 22:45;9,45
2018-10-02 23:00;5,85
2018-10-02 23:15;4,1
2018-10-02 23:30;3,9
2018-10-02 23:45;2,8
2018-10-03 00:00;0,65
2018-10-03 00:15;0
2018-10-03 00:30;0,1
2018-10-03 00:45;0,1
2018-10-03 01:00;0,45
2018-10-03 01:15;0,1
2018-10-03 01:30;0
2018-10-03 01:45;0,2
2018-10-03 02:00;0,65
2018-10-03 02:15;0,85
2018-10-03 02:30;0,1
2018-10-03 02:45;0,2
2018-10-03 03:00;0
2018-10-03 03:15;0
2018-10-03 03:30;0
2018-10-03 03:45;0,45
2018-10-03 04:00;0,25
2018-10-03 04:15;0,1
2018-10-03 04:30;0,1
2018-10-03 04:45;0,6
2018-10-03 05:00;0,65
2018-10-03 05:15;0,15
2018-10-03 05:30;0
2018-10-03 05:45;0,6
2018-10-03 06:00;0,2
2018-10-03 06:15;0
2018-10-03 06:30;0
2018-10-03 06:45;0
2018-10-03 07:00;0,15
2018-10-03 07:15;0,25
2018-10-03 07:30;2,05
2018-10-03 07:45;5,05
2018-10-03 08:00;9,55
2018-10-03 08:15;8,7
2018-10-03 08:30;11,45
2018-10-03 08:45;18,45
2018-10-03 09:00;20,95
2018-10-03 09:15;26,6
2018-10-03 09:30;27,25
2018-10-03 09:45;28,05
2018-10-03 10:00;27,5
2018-10-03 10:15;28,85
2018-10-03 10:30;33,2
2018-10-03 10:45;33,15
2018-10-03 11:00;33,1
2018-10-03 11:15;34,15
2018-10-03 11:30;35,85
2018-10-03 11:45;36,2
2018-10-03 12:00;37,4
2018-10-03 12:15;31,4
2018-10-03 12:30;30,8
2018-10-03 12:45;29,9
2018-10-03 13:00;30,4
2018-10-03 13:15;30,65
2018-10-03 13:30;27,7
2018-10-03 13:45;28,15
2018-10-03 14:00;27,8
2018-10-03 14:15;27,95
2018-10-03 14:30;26,3
2018-10-03 14:45;28,3
2018-10-03 15:00;28,8
2018-10-03 15:15;26,55
2018-10-03 15:30;26
2018-10-03 15:45;26,05
2018-10-03 16:00;24,85
2018-10-03 16:15;24
2018-10-03 16:30;21,15
2018-10-03 16:45;18,75
2018-10-03 17:00;18,1
2018-10-03 17:15;16,65
2018-10-03 17:30;15,75
2018-10-03 17:45;16,7
2018-10-03 18:00;15,45
2018-10-03 18:15;13,55
2018-10-03 18:30;14,4
2018-10-03 18:45;15,8
2018-10-03 19:00;13,8
2018-10-03 19:15;16,1
2018-10-03 19:30;14,55
2018-10-03 19:45;14,35
2018-10-03 20:00;12,8
2018-10-03 20:15;9,7
2018-10-03 20:30;14,8
2018-10-03 20:45;13,55
2018-10-03 21:00;13,85
2018-10-03 21:15;15,8
2018-10-03 21:30;15,4
2018-10-03 21:45;13,45
2018-10-03 22:00;14,25
2018-10-03 22:15;8,75
2018-10-03 22:30;5,35
2018-10-03 22:45;7,2
2018-10-03 23:00;4,95
2018-10-03 23:15;3,65
2018-10-03 23:30;4,75
2018-10-03 23:45;4,5
2018-10-04 00:00;5,1
2018-10-04 00:15;3,55
2018-10-04 00:30;1,95
2018-10-04 00:45;2,25
2018-10-04 01:00;3,55
2018-10-04 01:15;1,45
2018-10-04 01:30;2,15
2018-10-04 01:45;3,55
2018-10-04 02:00;3,6
2018-10-04 02:15;3,5
2018-10-04 02:30;5,5
2018-10-04 02:45;4,95
2018-10-04 03:00;4,6
2018-10-04 03:15;6,15
2018-10-04 03:30;6,05
2018-10-04 03:45;6,15
2018-10-04 04:00;6,6
2018-10-04 04:15;5,05
2018-10-04 04:30;6,1
2018-10-04 04:45;6,9
2018-10-04 05:00;7,05
2018-10-04 05:15;6,1
2018-10-04 05:30;7,85
2018-10-04 05:45;5,4
2018-10-04 06:00;3,8
2018-10-04 06:15;2,05
2018-10-04 06:30;1,05
2018-10-04 06:45;2,25
2018-10-04 07:00;4
2018-10-04 07:15;2,75
2018-10-04 07:30;3,4
2018-10-04 07:45;9,65
2018-10-04 08:00;8,25
2018-10-04 08:15;8,15
2018-10-04 08:30;12,35
2018-10-04 08:45;15,6
2018-10-04 09:00;22,85
2018-10-04 09:15;23,3
2018-10-04 09:30;34,6
2018-10-04 09:45;37,05
2018-10-04 10:00;36,55
2018-10-04 10:15;35,4
2018-10-04 10:30;35,7
2018-10-04 10:45;39,25
2018-10-04 11:00;37,25
2018-10-04 11:15;36,85
2018-10-04 11:30;40,05
2018-10-04 11:45;39,65
2018-10-04 12:00;38,95
2018-10-04 12:15;33,65
2018-10-04 12:30;34,6
2018-10-04 12:45;36,55
2018-10-04 13:00;46
2018-10-04 13:15;71,45
2018-10-04 13:30;57,6
2018-10-04 13:45;47,2
2018-10-04 14:00;53,55
2018-10-04 14:15;50,3
2018-10-04 14:30;43,7
2018-10-04 14:45;43,8
2018-10-04 15:00;41,6
2018-10-04 15:15;40,5
2018-10-04 15:30;33
2018-10-04 15:45;35,4
2018-10-04 16:00;33,6
2018-10-04 16:15;33,4
2018-10-04 16:30;30,8
2018-10-04 16:45;26,7
2018-10-04 17:00;29,75
2018-10-04 17:15;24,1
2018-10-04 17:30;28,75
2018-10-04 17:45;20,75
2018-10-04 18:00;27,25
2018-10-04 18:15;18,6
2018-10-04 18:30;20
2018-10-04 18:45;18,5
2018-10-04 19:00;19,95
2018-10-04 19:15;10,95
2018-10-04 19:30;7,3
2018-10-04 19:45;8,15
2018-10-04 20:00;7,9
2018-10-04 20:15;4,1
2018-10-04 20:30;6,95
2018-10-04 20:45;10,15
2018-10-04 21:00;8,45
2018-10-04 21:15;11,1
2018-10-04 21:30;10,7
2018-10-04 21:45;9,9
2018-10-04 22:00;9,05
2018-10-04 22:15;4,8
2018-10-04 22:30;3,25
2018-10-04 22:45;6,1
2018-10-04 23:00;7,65
2018-10-04 23:15;1,9
2018-10-04 23:30;1,45
2018-10-04 23:45;3,2
2018-10-05 00:00;0,75
2018-10-05 00:15;0
2018-10-05 00:30;0,25
2018-10-05 00:45;0
2018-10-05 01:00;0,15
2018-10-05 01:15;0
2018-10-05 01:30;0,05
2018-10-05 01:45;0,25
2018-10-05 02:00;0,55
2018-10-05 02:15;1,35
2018-10-05 02:30;1,25
2018-10-05 02:45;2
2018-10-05 03:00;1,6
2018-10-05 03:15;1,3
2018-10-05 03:30;1,95
2018-10-05 03:45;2,9
2018-10-05 04:00;3
2018-10-05 04:15;3,55
2018-10-05 04:30;3
2018-10-05 04:45;3,35
2018-10-05 05:00;3,35
2018-10-05 05:15;2,3
2018-10-05 05:30;2,6
2018-10-05 05:45;3,3
2018-10-05 06:00;2,2
2018-10-05 06:15;0,35
2018-10-05 06:30;0,3
2018-10-05 06:45;0
2018-10-05 07:00;0
2018-10-05 07:15;1,15
2018-10-05 07:30;7,9
2018-10-05 07:45;15,55
2018-10-05 08:00;19,25
2018-10-05 08:15;18,25
2018-10-05 08:30;18,15
2018-10-05 08:45;16,85
2018-10-05 09:00;20,7
2018-10-05 09:15;20,65
2018-10-05 09:30;22,35
2018-10-05 09:45;23,25
2018-10-05 10:00;23,8
2018-10-05 10:15;25,75
2018-10-05 10:30;28,7
2018-10-05 10:45;30,55
2018-10-05 11:00;31,6
2018-10-05 11:15;32,55
2018-10-05 11:30;32,65
2018-10-05 11:45;31,6
2018-10-05 12:00;36,85
2018-10-05 12:15;62,25
2018-10-05 12:30;54,7
2018-10-05 12:45;32,25
2018-10-05 13:00;29,9
2018-10-05 13:15;40,95
2018-10-05 13:30;30,2
2018-10-05 13:45;35,1
2018-10-05 14:00;33
2018-10-05 14:15;35,45
2018-10-05 14:30;35,1
2018-10-05 14:45;30,1
2018-10-05 15:00;31,15
2018-10-05 15:15;30,7
2018-10-05 15:30;31,6
2018-10-05 15:45;29,15
2018-10-05 16:00;30,15
2018-10-05 16:15;27,3
2018-10-05 16:30;26,8
2018-10-05 16:45;25,65
2018-10-05 17:00;25,65
2018-10-05 17:15;22,9
2018-10-05 17:30;20,25
2018-10-05 17:45;19,1
2018-10-05 18:00;18,85
2018-10-05 18:15;16,25
2018-10-05 18:30;16,6
2018-10-05 18:45;21,65
2018-10-05 19:00;15,7
2018-10-05 19:15;9,65
2018-10-05 19:30;8,85
2018-10-05 19:45;11,5
2018-10-05 20:00;10,25
2018-10-05 20:15;7,55
2018-10-05 20:30;8,1
2018-10-05 20:45;4,5
2018-10-05 21:00;9,05
2018-10-05 21:15;14,4
2018-10-05 21:30;14,6
2018-10-05 21:45;16,75
2018-10-05 22:00;14,3
2018-10-05 22:15;11,8
2018-10-05 22:30;12,65
2018-10-05 22:45;14
2018-10-05 23:00;14,4
2018-10-05 23:15;13,75
2018-10-05 23:30;6,85
2018-10-05 23:45;2,7
2018-10-06 00:00;2,95
2018-10-06 00:15;4,6
2018-10-06 00:30;1,35
2018-10-06 00:45;1,15
2018-10-06 01:00;0,6
2018-10-06 01:15;0,95
2018-10-06 01:30;1,75
2018-10-06 01:45;0,35
2018-10-06 02:00;0,6
2018-10-06 02:15;0,75
2018-10-06 02:30;0,85
2018-10-06 02:45;1,35
2018-10-06 03:00;1,8
2018-10-06 03:15;2
2018-10-06 03:30;1,5
2018-10-06 03:45;2,95
2018-10-06 04:00;2,15
2018-10-06 04:15;3,15
2018-10-06 04:30;3,35
2018-10-06 04:45;3,85
2018-10-06 05:00;3,7
2018-10-06 05:15;4,2
2018-10-06 05:30;3,75
2018-10-06 05:45;4,4
2018-10-06 06:00;3,1
2018-10-06 06:15;2,1
2018-10-06 06:30;1,95
2018-10-06 06:45;1,7
2018-10-06 07:00;1
2018-10-06 07:15;1,55
2018-10-06 07:30;2,3
2018-10-06 07:45;4,75
2018-10-06 08:00;6,15
2018-10-06 08:15;6,15
2018-10-06 08:30;8,05
2018-10-06 08:45;7
2018-10-06 09:00;6,8
2018-10-06 09:15;5,25
2018-10-06 09:30;4,35
2018-10-06 09:45;7
2018-10-06 10:00;8
2018-10-06 10:15;6,9
2018-10-06 10:30;6,9
2018-10-06 10:45;9,15
2018-10-06 11:00;9,95
2018-10-06 11:15;10,1
2018-10-06 11:30;10,8
2018-10-06 11:45;11,4
2018-10-06 12:00;8,95
2018-10-06 12:15;6,95
2018-10-06 12:30;5,2
2018-10-06 12:45;4,95
2018-10-06 13:00;4
2018-10-06 13:15;3,15
2018-10-06 13:30;2,4
2018-10-06 13:45;3,85
2018-10-06 14:00;3,1
2018-10-06 14:15;4,05
2018-10-06 14:30;5,1
2018-10-06 14:45;5,6
2018-10-06 15:00;6,4
2018-10-06 15:15;6,4
2018-10-06 15:30;6,95
2018-10-06 15:45;7,15
2018-10-06 16:00;7,9
2018-10-06 16:15;7,75
2018-10-06 16:30;6,95
2018-10-06 16:45;8,4
2018-10-06 17:00;7,25
2018-10-06 17:15;6,8
2018-10-06 17:30;6,05
2018-10-06 17:45;8,2
2018-10-06 18:00;8,6
2018-10-06 18:15;8,7
2018-10-06 18:30;7,95
2018-10-06 18:45;8
2018-10-06 19:00;9,1
2018-10-06 19:15;9,05
2018-10-06 19:30;7,45
2018-10-06 19:45;7,7
2018-10-06 20:00;8,6
2018-10-06 20:15;7,95
2018-10-06 20:30;8,9
2018-10-06 20:45;10
2018-10-06 21:00;10,7
2018-10-06 21:15;11,9
2018-10-06 21:30;12,6
2018-10-06 21:45;9,3
2018-10-06 22:00;4,5
2018-10-06 22:15;6,8
2018-10-06 22:30;10,45
2018-10-06 22:45;11,25
2018-10-06 23:00;11,45
2018-10-06 23:15;8,5
2018-10-06 23:30;7,65
2018-10-06 23:45;8,95
2018-10-07 00:00;9,05
2018-10-07 00:15;9,7
2018-10-07 00:30;7,3
2018-10-07 00:45;6,8
2018-10-07 01:00;7,2
2018-10-07 01:15;6,65
2018-10-07 01:30;2,9
2018-10-07 01:45;1,05
2018-10-07 02:00;0,7
2018-10-07 02:15;2
2018-10-07 02:30;1,8
2018-10-07 02:45;2,8
2018-10-07 03:00;2
2018-10-07 03:15;2,05
2018-10-07 03:30;3,15
2018-10-07 03:45;3,2
2018-10-07 04:00;1,75
2018-10-07 04:15;3,05
2018-10-07 04:30;3,2
2018-10-07 04:45;4,55
2018-10-07 05:00;2,7
2018-10-07 05:15;3,15
2018-10-07 05:30;4,6
2018-10-07 05:45;3,2
2018-10-07 06:00;3,3
2018-10-07 06:15;2,65
2018-10-07 06:30;3,35
2018-10-07 06:45;3,9
2018-10-07 07:00;2,5
2018-10-07 07:15;2,6
2018-10-07 07:30;1,35
2018-10-07 07:45;2,45
2018-10-07 08:00;0,75
2018-10-07 08:15;1,65
2018-10-07 08:30;0,9
2018-10-07 08:45;4
2018-10-07 09:00;7,4
2018-10-07 09:15;8,4
2018-10-07 09:30;8,6
2018-10-07 09:45;9,15
2018-10-07 10:00;8,75
2018-10-07 10:15;6,6
2018-10-07 10:30;4,5
2018-10-07 10:45;7,3
2018-10-07 11:00;7,3
2018-10-07 11:15;7,35
2018-10-07 11:30;9,55
2018-10-07 11:45;10,5
2018-10-07 12:00;7,65
2018-10-07 12:15;7,2
2018-10-07 12:30;8,3
2018-10-07 12:45;7,9
2018-10-07 13:00;10,4
2018-10-07 13:15;9,3
2018-10-07 13:30;10,05
2018-10-07 13:45;11,75
2018-10-07 14:00;8,9
2018-10-07 14:15;9,05
2018-10-07 14:30;11,05
2018-10-07 14:45;10,45
2018-10-07 15:00;12,25
2018-10-07 15:15;14,2
2018-10-07 15:30;13,05
2018-10-07 15:45;13,65
2018-10-07 16:00;14,1
2018-10-07 16:15;14,4
2018-10-07 16:30;12,6
2018-10-07 16:45;13,05
2018-10-07 17:00;11,55
2018-10-07 17:15;11,95
2018-10-07 17:30;13
2018-10-07 17:45;11,5
2018-10-07 18:00;11,25
2018-10-07 18:15;11,9
2018-10-07 18:30;11,25
2018-10-07 18:45;11,9
2018-10-07 19:00;13,55
2018-10-07 19:15;12,85
2018-10-07 19:30;14,75
2018-10-07 19:45;18,2
2018-10-07 20:00;16,3
2018-10-07 20:15;14,35
2018-10-07 20:30;15,5
2018-10-07 20:45;14,05
2018-10-07 21:00;10,85
2018-10-07 21:15;11,6
2018-10-07 21:30;8,95
2018-10-07 21:45;10
2018-10-07 22:00;7,75
2018-10-07 22:15;0,7
2018-10-07 22:30;0,2
2018-10-07 22:45;1,65
2018-10-07 23:00;1,2
2018-10-07 23:15;1,6
2018-10-07 23:30;2,4
2018-10-07 23:45;1,55

